Location: DaVinci Observatory
(43.1080°N, 78.6453°W)
Time: 21:25:17
(UTC-04:00)

Envisat - Pass Details

Date: 15 October 2017
Orbit: 764 x 766 km, 98.2° (Epoch: 21 July)

Event Time Altitude Azimuth Distance (km) Brightness Sun altitude
Exits shadow 21:24:13 46° 313° (NW) 1,030 3.9 -32.0°
Drops below altitude 10° 21:27:59 10° 340° (NNW) 2,314 5.9 -32.6°
Sets 21:30:20 0° 344° (NNW) 3,244 6.7 -33.0°
